, AK

(GMT )
Deadhorse

Weather History for PASC - May, 2013

Change the Weather History Date:

Wednesday, May 22, 2013

  Actual Average Record
Temperature  
Mean Temperature 30 °F -  
Max Temperature 36 °F 28 °F 46 °F (2015)
Min Temperature 25 °F 18 °F 10 °F (2007)
Degree Days  
Heating Degree Days 34    
Moisture  
Dew Point 28 °F    
Average Humidity 86    
Maximum Humidity 92    
Minimum Humidity 79    
Precipitation  
Precipitation 0.00 in - - ()
Sea Level Pressure  
Sea Level Pressure 30.19 in    
Wind  
Wind Speed 7 mph (ENE)    
Max Wind Speed 16 mph    
Max Gust Speed -    
Visibility 10 miles    
Events      
Averages and records for this station are not official NWS values.
T = Trace of Precipitation, MM = Missing Value Source: NWS Daily Summary

Daily Weather History Graph

Daily Weather History Graph

Search for Another Location

Airport or City:

Trip Planner

Search our weather history database for the weather conditions in past years. The results will help you decide how hot, cold, wet, or windy it might be!

Date:

Astronomy

May. 22, 2013 Rise Set
Actual Time 2:22 AM AKDT 1:18 AM AKDT
Civil Twilight Sun does not set Sun does not set
Nautical Twilight Sun does not set Sun does not set
Astronomical Twilight Sun does not set Sun does not set
Moon 9:00 PM AKDT (5/22) 3:02 AM AKDT (5/22)
Length of Visible Light 24h 00m
Length of Day
22h 55m
Waxing Gibbous, 92% of the Moon is Illuminated
May 22
Waxing Gibbous
May 24
Full
May 31
Last Quarter
Jun 8
New
Jun 16
First Quarter

Hourly Weather History & Observations

Time (AKDT) Temp. Windchill Dew Point Humidity Pressure Visibility Wind Dir Wind Speed Gust Speed Precip Events Conditions
12:53 AM 32.0 °F - 28.0 °F 85% 30.20 in 10.0 mi Calm Calm - N/A   Scattered Clouds
1:53 AM 30.0 °F 23.2 °F 26.1 °F 85% 30.20 in 10.0 mi WSW 6.9 mph - N/A   Scattered Clouds
2:53 AM 28.9 °F 21.1 °F 25.0 °F 85% 30.21 in 10.0 mi SW 8.1 mph - N/A   Scattered Clouds
3:53 AM 28.0 °F 21.7 °F 25.0 °F 88% 30.21 in 10.0 mi West 5.8 mph - N/A   Mostly Cloudy
4:53 AM 28.0 °F 22.8 °F 25.0 °F 88% 30.21 in 10.0 mi NNW 4.6 mph - N/A   Mostly Cloudy
5:53 AM 25.0 °F 20.7 °F 23.0 °F 92% 30.22 in 10.0 mi East 3.5 mph - N/A   Mostly Cloudy
6:53 AM 28.0 °F 24.2 °F 26.1 °F 92% 30.22 in 10.0 mi East 3.5 mph - N/A   Mostly Cloudy
7:53 AM 30.9 °F 26.2 °F 28.0 °F 89% 30.22 in 10.0 mi ENE 4.6 mph - N/A   Mostly Cloudy
8:53 AM 32.0 °F 27.5 °F 28.9 °F 88% 30.21 in 10.0 mi East 4.6 mph - N/A   Mostly Cloudy
9:53 AM 33.1 °F 25.5 °F 28.9 °F 85% 30.21 in 10.0 mi ENE 9.2 mph - N/A   Mostly Cloudy
10:53 AM 33.1 °F 24.9 °F 28.9 °F 85% 30.21 in 10.0 mi ENE 10.4 mph - N/A   Mostly Cloudy
11:53 AM 33.1 °F 25.5 °F 30.0 °F 89% 30.20 in 10.0 mi East 9.2 mph - N/A   Mostly Cloudy
12:53 PM 35.1 °F 28.6 °F 30.0 °F 82% 30.20 in 10.0 mi ENE 8.1 mph - N/A   Mostly Cloudy
1:53 PM 36.0 °F 27.5 °F 30.0 °F 79% 30.19 in 10.0 mi NE 12.7 mph - N/A   Partly Cloudy
2:53 PM 35.1 °F 25.9 °F 30.0 °F 82% 30.19 in 10.0 mi ENE 13.8 mph - N/A   Partly Cloudy
3:53 PM 34.0 °F 24.2 °F 30.0 °F 85% 30.18 in 10.0 mi ENE 15.0 mph - N/A   Partly Cloudy
4:53 PM 33.1 °F 23.0 °F 30.0 °F 89% 30.18 in 10.0 mi ENE 15.0 mph - N/A   Partly Cloudy
5:53 PM 33.1 °F 24.4 °F 30.0 °F 89% 30.17 in 10.0 mi East 11.5 mph - N/A   Partly Cloudy
6:53 PM 34.0 °F 25.0 °F 30.0 °F 85% 30.17 in 10.0 mi ENE 12.7 mph - N/A   Clear
7:53 PM 33.1 °F 23.4 °F 28.9 °F 85% 30.16 in 10.0 mi ENE 13.8 mph - N/A   Clear
8:53 PM 33.1 °F 22.6 °F 28.9 °F 85% 30.16 in 10.0 mi ENE 16.1 mph - N/A   Clear
9:53 PM 32.0 °F 21.6 °F 28.0 °F 85% 30.15 in 10.0 mi ENE 15.0 mph - N/A   Partly Cloudy
10:53 PM 30.9 °F 20.2 °F 27.0 °F 85% 30.15 in 10.0 mi ENE 15.0 mph - N/A   Partly Cloudy
11:53 PM 30.0 °F 19.5 °F 27.0 °F 88% 30.14 in 10.0 mi ENE 13.8 mph - N/A   Partly Cloudy